QPF
0.00 0.00 0.00 0.00 0.00 0.00 0.00 0.00 0.00 0.00 0.00 0.00 0.00 0.00 0.00 0.00 0.00 0.00 0.00 0.00 0.00 0.00 0.00 0.00 0.00 0.00 0.00 0.00 0.00 0.00 0.00 0.00 0.00 0.00 0.00 0.00 0.00 0.00 0.00 0.00 0.00 0.00 0.00
0.00 0.00 0.00 0.00 0.00 0.00 0.00 0.00 0.00 0.00 0.00 0.00 0.00 0.00 0.00 0.00 0.00 0.00 0.00 0.00 0.00 0.00 0.00 0.00 0.00 0.00 0.00 0.00 0.00 0.00 0.00 0.00 0.00 0.00 0.00 0.00 0.00 0.00 0.00 0.00 0.00 0.00 0.00
0.00 0.00 0.00 0.00 0.00 0.00 0.00 0.00 0.00 0.00 0.00 0.00 0.00 0.00 0.00 0.00 0.00 0.00 0.00 0.00 0.00 0.00 0.00 0.00 0.00 0.00 0.00 0.00 0.00 0.00 0.00 0.00 0.00 0.00 0.00 0.00 0.00 0.00 0.00 0.00 0.00 0.00 0.00
0.00 0.00 0.00 0.00 0.00 0.00 0.00 0.00 0.00 0.00 0.00 0.00 0.00 0.00 0.00 0.00 0.00 0.00 0.00 0.00 0.00 0.00 0.00 0.00 0.00 0.00 0.00 0.00 0.00 0.00 0.00 0.00 0.00 0.00 0.00 0.00 0.00 0.00 0.00 0.00 0.00 0.00 0.00
0.00 0.00 0.00 0.00 0.00 0.00 0.00 0.00 0.00 0.00 0.00 0.00 0.00 0.00 0.00 0.00 0.00 0.00 0.00 0.00 0.00 0.00 0.00 0.00 0.00 0.00 0.00 0.00 0.00 0.00 0.00 0.00 0.00 0.00 0.00 0.00 0.00 0.00 0.00 0.00 0.00 0.00 0.00
0.00 0.00 0.00 0.00 0.00 0.00 0.00 0.00 0.00 0.00 0.00 0.00 0.00 0.00 0.00 0.00 0.00 0.00 0.00 0.00 0.00 0.00 0.00 0.00 0.00 0.00 0.00 0.00 0.00 0.00 0.00 0.00 0.00 0.00 0.00 0.00 0.00 0.00 0.00 0.00 0.00 0.00 0.00
0.00 0.00 0.00 0.00 0.00 0.00 0.00 0.00 0.00 0.00 0.00 0.00 0.00 0.00 0.00 0.00 0.00 0.00 0.00 0.00 0.00 0.00 0.00 0.00 0.00 0.00 0.00 0.00 0.00 0.00 0.00 0.00 0.00 0.00 0.00 0.00 0.00 0.00 0.00 0.00 0.00 0.00 0.00
0.00 0.00 0.00 0.00 0.00 0.00 0.00 0.00 0.00 0.00 0.00 0.00 0.00 0.00 0.00 0.00 0.00 0.00 0.00 0.00 0.00 0.00 0.00 0.00 0.00 0.00 0.00 0.00 0.00 0.00 0.00 0.00 0.00 0.00 0.00 0.00 0.00 0.00 0.00 0.00 0.00 0.00 0.00
0.00 0.00 0.00 0.00 0.00 0.00 0.00 0.00 0.00 0.00 0.00 0.00 0.00 0.00 0.00 0.00 0.00 0.00 0.00 0.00 0.00 0.00 0.00 0.00 0.00 0.00 0.00 0.00 0.00 0.00 0.00 0.00 0.00 0.00 0.00 0.00 0.00 0.00 0.00 0.00 0.00 0.00 0.00
0.00 0.00 0.00 0.00 0.00 0.00 0.00 0.00 0.00 0.00 0.00 0.00 0.00 0.00 0.00 0.00 0.00 0.00 0.00 0.00 0.00 0.00 0.00 0.00 0.00 0.00 0.00 0.00 0.00 0.00 0.00 0.00 0.00 0.00 0.00 0.00 0.00 0.00 0.00 0.00 0.00 0.00 0.00
0.00 0.00 0.00 0.00 0.00 0.00 0.00 0.00 0.00 0.00 0.00 0.00 0.00 0.00 0.00 0.00 0.00 0.00 0.00 0.00 0.00 0.00 0.00 0.00 0.00 0.00 0.00 0.00 0.00 0.00 0.00 0.00 0.00 0.00 0.00 0.00 0.00 0.00 0.00 0.00 0.00 0.00 0.00
0.00 0.00 0.00 0.00 0.00 0.00 0.00 0.00 0.00 0.00 0.00 0.00 0.00 0.00 0.00 0.00 0.00 0.00 0.00 0.00 0.00 0.00 0.00 0.00 0.00 0.00 0.00 0.00 0.00 0.00 0.00 0.00 0.00 0.00 0.00 0.00 0.00 0.00 0.00 0.00 0.00 0.00 0.00
0.00 0.00 0.00 0.00 0.00 0.00 0.00 0.00 0.00 0.00 0.00 0.00 0.00 0.00 0.00 0.00 0.00 0.00 0.00 0.00 0.00 0.00 0.00 0.00 0.00 0.00 0.00 0.00 0.00 0.00 0.00 0.00 0.00 0.00 0.00 0.00 0.00 0.00 0.00 0.00 0.00 0.00 0.00
0.00 0.00 0.00 0.00 0.00 0.00 0.00 0.00 0.00 0.00 0.00 0.00 0.00 0.00 0.00 0.00 0.00 0.00 0.00 0.00 0.00 0.00 0.00 0.00 0.00 0.00 0.00 0.00 0.00 0.00 0.00 0.00 0.00 0.00 0.00 0.00 0.00 0.00 0.00 0.01 0.00 0.00 0.00
0.00 0.00 0.00 0.00 0.00 0.00 0.00 0.00 0.00 0.00 0.00 0.00 0.00 0.00 0.00 0.00 0.00 0.00 0.00 0.00 0.00 0.00 0.00 0.00 0.00 0.00 0.00 0.00 0.00 0.00 0.00 0.00 0.00 0.00 0.00 0.00 0.00 0.00 0.00 0.01 0.01 0.01 0.01
0.00 0.00 0.00 0.00 0.00 0.00 0.00 0.00 0.00 0.00 0.00 0.00 0.00 0.00 0.00 0.00 0.00 0.00 0.00 0.00 0.00 0.00 0.00 0.00 0.00 0.00 0.00 0.00 0.00 0.00 0.00 0.00 0.00 0.00 0.00 0.00 0.01 0.01 0.01 0.01 0.01 0.02 0.03
0.00 0.00 0.00 0.00 0.00 0.00 0.00 0.00 0.00 0.00 0.00 0.00 0.00 0.00 0.00 0.00 0.00 0.00 0.00 0.00 0.00 0.00 0.00 0.00 0.00 0.00 0.00 0.00 0.00 0.00 0.00 0.00 0.00 0.00 0.00 0.01 0.01 0.01 0.01 0.02 0.02 0.03 0.03
0.00 0.00 0.00 0.00 0.00 0.00 0.00 0.00 0.00 0.00 0.00 0.00 0.00 0.00 0.00 0.00 0.00 0.00 0.00 0.00 0.00 0.00 0.00 0.00 0.00 0.00 0.00 0.00 0.00 0.00 0.01 0.01 0.00 0.00 0.01 0.01 0.01 0.01 0.01 0.02 0.02 0.01 0.01
0.00 0.00 0.00 0.00 0.00 0.00 0.00 0.00 0.00 0.00 0.00 0.00 0.00 0.00 0.00 0.00 0.00 0.00 0.00 0.00 0.00 0.00 0.00 0.00 0.00 0.00 0.00 0.00 0.00 0.00 0.01 0.02 0.01 0.01 0.01 0.01 0.01 0.01 0.02 0.03 0.02 0.01 0.00
0.00 0.00 0.00 0.00 0.00 0.00 0.00 0.00 0.00 0.00 0.00 0.00 0.00 0.00 0.00 0.00 0.00 0.00 0.00 0.00 0.00 0.00 0.00 0.00 0.00 0.00 0.00 0.00 0.00 0.01 0.02 0.03 0.02 0.02 0.01 0.01 0.01 0.01 0.02 0.04 0.03 0.01 0.01
0.00 0.00 0.00 0.00 0.00 0.00 0.00 0.00 0.00 0.00 0.00 0.00 0.00 0.00 0.00 0.00 0.00 0.00 0.00 0.00 0.00 0.00 0.00 0.00 0.00 0.00 0.00 0.00 0.00 0.01 0.02 0.02 0.02 0.03 0.02 0.01 0.01 0.03 0.03 0.03 0.02 0.01 0.01
0.00 0.00 0.00 0.00 0.00 0.00 0.00 0.00 0.00 0.00 0.00 0.00 0.00 0.00 0.00 0.00 0.00 0.00 0.00 0.00 0.00 0.00 0.00 0.00 0.00 0.00 0.00 0.00 0.00 0.01 0.02 0.03 0.03 0.03 0.02 0.01 0.01 0.02 0.03 0.03 0.03 0.02 0.02
0.00 0.00 0.00 0.00 0.00 0.00 0.00 0.00 0.00 0.00 0.00 0.00 0.00 0.00 0.00 0.00 0.00 0.00 0.00 0.00 0.00 0.00 0.00 0.00 0.00 0.00 0.00 0.00 0.00 0.01 0.02 0.06 0.07 0.04 0.02 0.02 0.02 0.02 0.02 0.02 0.02 0.02 0.02
0.00 0.00 0.00 0.00 0.00 0.00 0.00 0.00 0.00 0.00 0.00 0.00 0.00 0.00 0.00 0.00 0.00 0.00 0.00 0.00 0.00 0.00 0.00 0.00 0.00 0.00 0.00 0.00 0.00 0.01 0.02 0.04 0.09 0.09 0.05 0.03 0.03 0.03 0.01 0.01 0.01 0.01 0.01
0.00 0.00 0.00 0.00 0.00 0.00 0.00 0.00 0.00 0.00 0.00 0.00 0.00 0.00 0.00 0.00 0.00 0.00 0.00 0.00 0.00 0.00 0.00 0.00 0.00 0.00 0.00 0.00 0.00 0.01 0.01 0.02 0.04 0.11 0.13 0.08 0.05 0.04 0.02 0.01 0.00 0.00 0.00
0.00 0.00 0.00 0.00 0.00 0.00 0.00 0.00 0.00 0.00 0.00 0.00 0.00 0.00 0.00 0.00 0.00 0.00 0.00 0.00 0.00 0.00 0.00 0.00 0.00 0.00 0.00 0.01 0.01 0.02 0.03 0.03 0.05 0.11 0.12 0.07 0.03 0.02 0.01 0.01 0.00 0.00 0.00
MSLP
1009.87 1009.95 1010.12 1010.40 1010.80 1011.34 1012.02 1012.82 1013.71 1014.63 1015.51 1016.31 1016.97 1017.49 1017.87 1018.15 1018.37 1018.58 1018.83 1019.15 1019.53 1019.98 1020.46 1020.95 1021.42 1021.87 1022.29 1022.69 1023.08 1023.46 1023.84 1024.19 1024.51 1024.76 1024.92 1024.99 1024.96 1024.86 1024.72 1024.58 1024.47 1024.42 1024.43
1010.15 1010.16 1010.22 1010.37 1010.62 1011.01 1011.55 1012.24 1013.06 1013.93 1014.80 1015.60 1016.29 1016.83 1017.22 1017.48 1017.68 1017.86 1018.06 1018.32 1018.66 1019.07 1019.53 1020.01 1020.49 1020.94 1021.37 1021.78 1022.17 1022.55 1022.93 1023.29 1023.62 1023.90 1024.10 1024.22 1024.25 1024.20 1024.11 1024.01 1023.92 1023.88 1023.88
1010.71 1010.67 1010.64 1010.65 1010.74 1010.96 1011.34 1011.89 1012.58 1013.37 1014.19 1014.98 1015.66 1016.21 1016.61 1016.87 1017.05 1017.19 1017.34 1017.55 1017.84 1018.20 1018.62 1019.07 1019.53 1019.97 1020.39 1020.78 1021.15 1021.52 1021.89 1022.25 1022.59 1022.90 1023.15 1023.33 1023.43 1023.47 1023.45 1023.40 1023.36 1023.33 1023.33
1011.39 1011.32 1011.23 1011.13 1011.08 1011.13 1011.34 1011.71 1012.26 1012.94 1013.68 1014.42 1015.08 1015.62 1016.01 1016.27 1016.43 1016.54 1016.65 1016.80 1017.03 1017.34 1017.71 1018.12 1018.55 1018.96 1019.36 1019.73 1020.08 1020.43 1020.77 1021.12 1021.47 1021.80 1022.10 1022.35 1022.53 1022.66 1022.72 1022.75 1022.75 1022.75 1022.75
1012.03 1011.97 1011.84 1011.67 1011.50 1011.41 1011.45 1011.66 1012.05 1012.59 1013.23 1013.89 1014.50 1015.01 1015.39 1015.64 1015.77 1015.85 1015.92 1016.03 1016.20 1016.46 1016.78 1017.16 1017.55 1017.94 1018.31 1018.66 1018.99 1019.31 1019.64 1019.97 1020.31 1020.66 1021.00 1021.30 1021.57 1021.78 1021.93 1022.03 1022.08 1022.11 1022.11
1012.52 1012.50 1012.37 1012.15 1011.91 1011.69 1011.59 1011.64 1011.88 1012.27 1012.79 1013.35 1013.90 1014.36 1014.71 1014.93 1015.05 1015.10 1015.13 1015.20 1015.33 1015.54 1015.82 1016.16 1016.54 1016.91 1017.27 1017.60 1017.91 1018.21 1018.51 1018.82 1019.16 1019.51 1019.87 1020.22 1020.54 1020.82 1021.05 1021.22 1021.33 1021.38 1021.38
1012.83 1012.86 1012.75 1012.51 1012.22 1011.92 1011.70 1011.62 1011.71 1011.96 1012.35 1012.80 1013.26 1013.66 1013.96 1014.15 1014.23 1014.26 1014.26 1014.30 1014.39 1014.57 1014.82 1015.14 1015.49 1015.86 1016.20 1016.53 1016.83 1017.11 1017.39 1017.69 1018.01 1018.36 1018.72 1019.10 1019.47 1019.80 1020.09 1020.32 1020.48 1020.56 1020.58
1012.97 1013.03 1012.95 1012.72 1012.40 1012.05 1011.75 1011.55 1011.52 1011.64 1011.90 1012.23 1012.59 1012.92 1013.16 1013.31 1013.36 1013.36 1013.34 1013.35 1013.41 1013.56 1013.79 1014.09 1014.43 1014.78 1015.13 1015.45 1015.74 1016.01 1016.28 1016.55 1016.86 1017.20 1017.56 1017.95 1018.34 1018.72 1019.06 1019.34 1019.54 1019.67 1019.71
1012.98 1013.07 1013.01 1012.80 1012.47 1012.09 1011.73 1011.45 1011.31 1011.32 1011.46 1011.68 1011.94 1012.18 1012.36 1012.46 1012.48 1012.45 1012.40 1012.38 1012.42 1012.54 1012.74 1013.02 1013.34 1013.68 1014.01 1014.33 1014.62 1014.88 1015.14 1015.41 1015.70 1016.03 1016.39 1016.78 1017.19 1017.60 1017.97 1018.30 1018.55 1018.73 1018.82
1012.93 1013.03 1012.98 1012.78 1012.45 1012.06 1011.66 1011.33 1011.12 1011.03 1011.06 1011.18 1011.34 1011.50 1011.61 1011.66 1011.64 1011.58 1011.51 1011.46 1011.47 1011.55 1011.71 1011.95 1012.23 1012.55 1012.86 1013.16 1013.44 1013.71 1013.96 1014.23 1014.52 1014.85 1015.21 1015.61 1016.04 1016.47 1016.88 1017.24 1017.55 1017.77 1017.91
1012.86 1012.94 1012.89 1012.69 1012.37 1011.98 1011.58 1011.22 1010.95 1010.79 1010.74 1010.78 1010.85 1010.93 1010.98 1010.98 1010.92 1010.83 1010.72 1010.63 1010.59 1010.62 1010.73 1010.90 1011.13 1011.40 1011.67 1011.95 1012.22 1012.48 1012.75 1013.03 1013.33 1013.67 1014.06 1014.47 1014.92 1015.37 1015.81 1016.21 1016.55 1016.83 1017.02
1012.80 1012.84 1012.77 1012.57 1012.26 1011.88 1011.48 1011.11 1010.82 1010.62 1010.52 1010.48 1010.49 1010.51 1010.50 1010.44 1010.34 1010.21 1010.06 1009.92 1009.83 1009.79 1009.81 1009.91 1010.06 1010.25 1010.47 1010.71 1010.96 1011.23 1011.51 1011.81 1012.15 1012.53 1012.94 1013.39 1013.86 1014.33 1014.79 1015.22 1015.59 1015.90 1016.12
1012.74 1012.73 1012.62 1012.41 1012.11 1011.75 1011.38 1011.03 1010.73 1010.52 1010.38 1010.30 1010.25 1010.21 1010.15 1010.05 1009.90 1009.72 1009.53 1009.33 1009.17 1009.04 1008.98 1008.97 1009.03 1009.13 1009.28 1009.48 1009.71 1009.97 1010.27 1010.62 1011.01 1011.43 1011.90 1012.38 1012.88 1013.37 1013.84 1014.27 1014.65 1014.97 1015.21
1012.66 1012.59 1012.45 1012.23 1011.94 1011.61 1011.26 1010.94 1010.67 1010.45 1010.29 1010.18 1010.09 1010.00 1009.89 1009.75 1009.56 1009.34 1009.09 1008.84 1008.59 1008.38 1008.22 1008.10 1008.05 1008.06 1008.13 1008.27 1008.47 1008.74 1009.07 1009.47 1009.91 1010.40 1010.91 1011.44 1011.96 1012.46 1012.93 1013.34 1013.71 1014.01 1014.24
1012.55 1012.43 1012.25 1012.02 1011.74 1011.44 1011.13 1010.85 1010.60 1010.39 1010.22 1010.09 1009.96 1009.83 1009.68 1009.49 1009.26 1008.99 1008.70 1008.39 1008.07 1007.78 1007.51 1007.29 1007.13 1007.05 1007.04 1007.12 1007.30 1007.57 1007.93 1008.36 1008.87 1009.41 1009.97 1010.54 1011.07 1011.57 1012.01 1012.40 1012.72 1012.99 1013.19
1012.42 1012.25 1012.04 1011.79 1011.53 1011.25 1010.98 1010.73 1010.50 1010.31 1010.13 1009.97 1009.81 1009.64 1009.44 1009.21 1008.94 1008.63 1008.29 1007.93 1007.55 1007.18 1006.83 1006.52 1006.27 1006.10 1006.02 1006.05 1006.20 1006.46 1006.84 1007.31 1007.86 1008.44 1009.05 1009.63 1010.17 1010.65 1011.06 1011.40 1011.67 1011.88 1012.04
1012.31 1012.09 1011.85 1011.59 1011.33 1011.07 1010.83 1010.59 1010.38 1010.18 1009.99 1009.79 1009.59 1009.37 1009.12 1008.85 1008.54 1008.20 1007.83 1007.43 1007.01 1006.59 1006.17 1005.79 1005.46 1005.22 1005.07 1005.05 1005.17 1005.42 1005.80 1006.29 1006.86 1007.47 1008.09 1008.68 1009.21 1009.66 1010.03 1010.31 1010.53 1010.69 1010.80
1012.25 1011.99 1011.72 1011.44 1011.18 1010.92 1010.68 1010.45 1010.23 1010.00 1009.78 1009.54 1009.28 1009.01 1008.71 1008.39 1008.05 1007.68 1007.28 1006.86 1006.42 1005.96 1005.51 1005.08 1004.70 1004.40 1004.20 1004.14 1004.21 1004.43 1004.80 1005.29 1005.85 1006.47 1007.08 1007.65 1008.16 1008.58 1008.91 1009.15 1009.32 1009.44 1009.53
1012.28 1011.98 1011.67 1011.37 1011.09 1010.81 1010.56 1010.31 1010.05 1009.79 1009.51 1009.21 1008.90 1008.56 1008.21 1007.85 1007.47 1007.08 1006.67 1006.24 1005.79 1005.33 1004.86 1004.41 1004.00 1003.65 1003.41 1003.30 1003.33 1003.51 1003.84 1004.29 1004.83 1005.41 1006.00 1006.55 1007.03 1007.42 1007.72 1007.93 1008.08 1008.19 1008.27
1012.40 1012.06 1011.72 1011.38 1011.06 1010.76 1010.46 1010.17 1009.87 1009.54 1009.20 1008.83 1008.45 1008.05 1007.65 1007.25 1006.84 1006.44 1006.03 1005.60 1005.16 1004.70 1004.24 1003.78 1003.35 1002.98 1002.70 1002.54 1002.52 1002.64 1002.92 1003.32 1003.80 1004.34 1004.89 1005.40 1005.85 1006.23 1006.51 1006.72 1006.88 1007.00 1007.10
1012.58 1012.20 1011.82 1011.44 1011.08 1010.73 1010.38 1010.03 1009.67 1009.28 1008.87 1008.43 1007.98 1007.52 1007.07 1006.63 1006.21 1005.79 1005.38 1004.97 1004.55 1004.11 1003.65 1003.19 1002.76 1002.37 1002.06 1001.86 1001.78 1001.85 1002.05 1002.39 1002.81 1003.29 1003.79 1004.27 1004.70 1005.06 1005.35 1005.59 1005.77 1005.93 1006.08
1012.76 1012.35 1011.92 1011.50 1011.09 1010.69 1010.28 1009.87 1009.45 1008.99 1008.52 1008.02 1007.51 1007.01 1006.51 1006.05 1005.60 1005.18 1004.78 1004.38 1003.97 1003.55 1003.11 1002.67 1002.23 1001.83 1001.50 1001.26 1001.13 1001.13 1001.27 1001.53 1001.88 1002.30 1002.75 1003.20 1003.62 1003.99 1004.31 1004.58 1004.82 1005.03 1005.23
1012.88 1012.43 1011.97 1011.51 1011.04 1010.59 1010.14 1009.67 1009.19 1008.68 1008.16 1007.61 1007.06 1006.52 1006.00 1005.51 1005.05 1004.63 1004.23 1003.83 1003.44 1003.03 1002.61 1002.18 1001.75 1001.35 1001.00 1000.73 1000.56 1000.51 1000.58 1000.78 1001.07 1001.43 1001.84 1002.26 1002.68 1003.07 1003.42 1003.74 1004.03 1004.30 1004.55
1012.87 1012.39 1011.89 1011.39 1010.89 1010.40 1009.91 1009.40 1008.88 1008.34 1007.79 1007.22 1006.64 1006.08 1005.54 1005.03 1004.56 1004.13 1003.72 1003.32 1002.93 1002.53 1002.12 1001.70 1001.28 1000.89 1000.53 1000.25 1000.05 999.96 999.99 1000.13 1000.37 1000.70 1001.07 1001.48 1001.90 1002.31 1002.70 1003.06 1003.41 1003.73 1004.02
1012.70 1012.19 1011.67 1011.14 1010.61 1010.09 1009.57 1009.05 1008.52 1007.96 1007.40 1006.82 1006.24 1005.67 1005.12 1004.60 1004.11 1003.66 1003.23 1002.82 1002.42 1002.02 1001.62 1001.21 1000.80 1000.42 1000.07 999.79 999.59 999.48 999.49 999.60 999.80 1000.10 1000.45 1000.85 1001.27 1001.70 1002.12 1002.53 1002.91 1003.27 1003.59
1012.36 1011.83 1011.28 1010.74 1010.20 1009.67 1009.15 1008.62 1008.09 1007.55 1006.99 1006.42 1005.85 1005.27 1004.72 1004.18 1003.67 1003.19 1002.73 1002.29 1001.87 1001.46 1001.05 1000.65 1000.26 999.90 999.58 999.32 999.14 999.04 999.04 999.14 999.33 999.61 999.95 1000.35 1000.77 1001.21 1001.66 1002.09 1002.50 1002.87 1003.20
Thickness
5734 5736 5732 5726 5717 5708 5700 5692 5683 5675 5666 5660 5654 5650 5646 5643 5640 5637 5632 5626 5619 5611 5603 5598 5593 5587 5581 5575 5568 5559 5552 5545 5539 5531 5527 5526 5524 5521 5517 5513 5507 5503 5498
5719 5722 5721 5716 5710 5702 5695 5689 5682 5674 5667 5661 5656 5650 5645 5641 5638 5633 5628 5622 5615 5608 5600 5593 5588 5581 5575 5568 5561 5553 5544 5537 5530 5520 5511 5508 5512 5514 5512 5506 5499 5494 5488
5707 5708 5709 5706 5701 5695 5690 5685 5678 5672 5665 5657 5648 5643 5638 5634 5631 5629 5624 5619 5612 5605 5598 5590 5582 5576 5569 5564 5557 5549 5540 5531 5524 5518 5507 5497 5499 5499 5500 5498 5492 5486 5480
5701 5700 5698 5697 5693 5689 5685 5678 5672 5666 5659 5650 5643 5637 5633 5633 5632 5624 5618 5612 5606 5600 5593 5585 5577 5569 5563 5557 5550 5543 5535 5525 5517 5509 5506 5500 5492 5483 5478 5480 5479 5475 5470
5692 5690 5689 5687 5686 5682 5677 5671 5665 5658 5652 5645 5638 5630 5627 5624 5618 5613 5609 5604 5599 5593 5587 5579 5571 5563 5556 5550 5542 5535 5528 5522 5514 5506 5498 5488 5481 5475 5464 5459 5462 5460 5459
5681 5679 5678 5677 5675 5672 5667 5662 5657 5651 5645 5638 5632 5625 5620 5614 5608 5604 5600 5596 5591 5586 5581 5572 5565 5557 5550 5542 5535 5527 5521 5515 5508 5500 5494 5486 5477 5471 5461 5454 5449 5447 5446
5670 5667 5665 5663 5662 5660 5657 5652 5647 5641 5636 5631 5625 5620 5613 5606 5601 5596 5591 5587 5583 5579 5574 5566 5559 5552 5544 5536 5527 5519 5514 5507 5501 5495 5488 5482 5477 5469 5460 5449 5442 5436 5435
5661 5658 5655 5653 5650 5649 5646 5642 5637 5632 5627 5622 5617 5612 5606 5600 5596 5590 5585 5581 5577 5573 5567 5560 5554 5547 5538 5529 5521 5513 5508 5500 5494 5487 5480 5473 5468 5460 5453 5444 5431 5422 5419
5651 5648 5646 5644 5641 5639 5636 5633 5629 5624 5619 5614 5609 5604 5599 5593 5589 5584 5579 5574 5570 5565 5560 5554 5548 5541 5533 5524 5515 5508 5502 5493 5486 5480 5471 5464 5458 5450 5443 5434 5426 5413 5405
5641 5639 5636 5633 5632 5629 5627 5624 5620 5615 5611 5606 5600 5596 5591 5586 5582 5577 5572 5567 5562 5556 5551 5545 5539 5533 5526 5518 5509 5502 5495 5485 5479 5470 5461 5455 5448 5439 5431 5424 5415 5407 5399
5632 5629 5626 5624 5622 5620 5617 5614 5610 5607 5602 5597 5592 5587 5582 5577 5572 5568 5564 5559 5554 5549 5543 5538 5531 5525 5518 5510 5501 5495 5486 5477 5469 5460 5452 5445 5436 5428 5420 5412 5405 5397 5390
5626 5622 5618 5615 5613 5609 5607 5604 5601 5597 5592 5587 5582 5577 5572 5567 5562 5558 5555 5550 5545 5540 5535 5530 5524 5518 5511 5503 5495 5487 5478 5469 5461 5453 5443 5436 5426 5418 5410 5402 5395 5388 5381
5619 5615 5611 5606 5603 5601 5598 5595 5591 5587 5583 5578 5572 5566 5561 5556 5552 5548 5545 5540 5536 5531 5526 5520 5515 5510 5503 5495 5488 5480 5471 5462 5454 5444 5435 5426 5416 5410 5401 5392 5385 5378 5371
5610 5607 5602 5598 5595 5592 5589 5585 5581 5577 5572 5567 5560 5555 5550 5545 5541 5537 5533 5528 5524 5520 5516 5511 5506 5500 5492 5485 5477 5469 5461 5453 5445 5436 5427 5418 5409 5401 5391 5383 5375 5367 5360
5604 5599 5594 5589 5586 5583 5579 5574 5570 5565 5560 5555 5548 5543 5539 5534 5529 5524 5519 5515 5511 5508 5504 5500 5496 5490 5483 5475 5465 5459 5452 5444 5436 5428 5420 5411 5401 5392 5382 5374 5366 5357 5350
5594 5589 5585 5580 5576 5572 5567 5562 5557 5553 5547 5541 5536 5532 5526 5521 5515 5510 5506 5502 5498 5495 5491 5487 5483 5479 5474 5468 5461 5452 5443 5436 5428 5420 5411 5402 5393 5385 5377 5369 5361 5351 5341
5582 5577 5573 5569 5564 5558 5553 5548 5544 5539 5533 5527 5522 5518 5513 5507 5502 5498 5494 5490 5486 5483 5479 5476 5472 5469 5464 5458 5453 5447 5438 5429 5420 5411 5401 5393 5385 5376 5366 5360 5354 5347 5340
5569 5565 5560 5555 5549 5544 5538 5533 5529 5523 5517 5512 5507 5503 5497 5492 5488 5484 5480 5477 5475 5472 5469 5466 5462 5459 5455 5448 5444 5438 5432 5424 5415 5404 5394 5384 5375 5367 5357 5348 5340 5334 5328
5556 5551 5545 5539 5533 5527 5522 5517 5512 5507 5502 5498 5493 5488 5482 5477 5473 5470 5467 5465 5463 5461 5458 5455 5452 5448 5445 5439 5434 5428 5421 5415 5407 5397 5387 5377 5368 5359 5349 5340 5332 5325 5319
5541 5536 5529 5522 5515 5510 5505 5499 5495 5491 5487 5484 5479 5474 5468 5463 5460 5458 5456 5453 5451 5449 5446 5444 5440 5437 5433 5429 5424 5418 5411 5404 5397 5388 5379 5370 5360 5351 5343 5335 5327 5320 5313
5524 5518 5511 5503 5497 5492 5487 5482 5478 5475 5472 5468 5464 5459 5454 5449 5446 5445 5442 5439 5438 5436 5434 5432 5429 5425 5422 5418 5414 5408 5401 5394 5386 5379 5372 5362 5354 5346 5338 5330 5322 5316 5308
5506 5499 5492 5486 5481 5474 5469 5467 5463 5460 5456 5452 5448 5444 5440 5436 5433 5430 5429 5426 5424 5422 5421 5419 5417 5413 5410 5407 5403 5398 5393 5386 5377 5371 5363 5354 5347 5339 5332 5324 5318 5310 5304
5487 5481 5474 5470 5466 5458 5452 5449 5448 5444 5441 5438 5433 5429 5426 5422 5419 5417 5416 5414 5411 5409 5408 5406 5405 5403 5399 5395 5393 5389 5384 5378 5370 5362 5354 5345 5338 5330 5323 5316 5310 5303 5294
5468 5463 5457 5453 5451 5445 5438 5432 5431 5428 5426 5423 5419 5416 5413 5411 5409 5406 5403 5401 5400 5398 5397 5396 5395 5393 5389 5384 5380 5375 5370 5366 5360 5353 5345 5338 5329 5321 5313 5306 5299 5292 5284
5451 5446 5440 5437 5435 5430 5425 5419 5416 5414 5412 5410 5407 5403 5400 5398 5398 5396 5394 5393 5392 5389 5389 5388 5385 5382 5380 5376 5374 5366 5360 5352 5346 5340 5333 5326 5319 5311 5303 5295 5288 5282 5275
5436 5431 5426 5422 5418 5415 5412 5408 5404 5401 5399 5397 5394 5391 5389 5388 5387 5387 5388 5388 5386 5387 5386 5384 5381 5378 5375 5372 5367 5361 5355 5347 5339 5331 5324 5318 5310 5303 5295 5288 5281 5275 5269